Location: Unspecified
(0.0000°N, 0.0000°E)
Time: 21:12:00
(UTC+00:00)

STARLINK-1131 - Visible Passes

Search period start: 12 January 2025 00:00
Search period end: 22 January 2025 00:00
Orbit: 546 x 548 km, 53.1° (Epoch: 12 January)

Date Brightness Start Highest point End Pass type
(mag) Time Alt. Az. Time Alt. Az. Time Alt. Az.
12 Jan 4.6 05:22:10 10° NNW 05:26:05 44° NE 05:30:02 10° SE visible
13 Jan 3.8 05:15:52 11° NNW 05:19:45 72° NE 05:23:52 10° SE visible
14 Jan 3.6 05:10:34 19° NW 05:13:23 70° WSW 05:17:30 10° SSE visible
15 Jan 4.1 05:05:13 27° WNW 05:07:00 43° SW 05:10:56 10° SSE visible
16 Jan 4.7 04:59:48 25° WSW 05:00:35 27° SW 05:04:08 10° S visible
17 Jan 5.3 04:54:18 18° SW 04:54:18 18° SW 04:57:01 10° S visible
18 Jan 6.0 04:48:42 11° SW 04:48:42 11° SW 04:49:14 10° SSW visible
